User: anonymous   Login
Location: ????????
(60.4333°N, 46.4710°E)
Time: 06:19:57
(UTC+00:00)
Language:

Resurs 01 Rocket - Orbit

View from above orbital plane
View from above orbital plane
View from above satellite
View from above satellite

Ground track
Ground track

The orbit data is extracted from the following two-line orbital elements,

1 23343U 94074B   21058.38844152  .00000046  00000-0  13770-4 0  9992
2 23343  97.9629 114.6116 0007975  56.5221 314.6594 14.76864776416041
Epoch (UTC): 27 February 2021 09:19:21
Eccentricity: 0.0007975
inclination: 97.9629°
perigee height: 633 km
apogee height: 645 km
right ascension of ascending node: 114.6116°
argument of perigee: 56.5221°
revolutions per day: 14.76864776
mean anomaly at epoch: 314.6594°
orbit number at epoch: 41604

The dashed part of the orbit path shows where the satellite is in the earth's shadow,  

DLR